740  
ASUS43 KEAX 181110  
RWREAX  
 
WEATHER ROUNDUP FOR EASTERN KANSAS AND NORTHWEST MISSOURI  
NATIONAL WEATHER SERVICE KANSAS CITY/PLEASANT HILL MO  
500 AM CST FRI JAN 18 2019  
 
KSZ040-057-103>105-MOZ028-029-037-043-181200-   
..KANSAS CITY METROPOLITAN AREA
 
 
 
CITY SKY/WX TMP DP RH WIND PRES REMARKS
 
K.C. INTL CLOUDY 32 30 92 SE8 30.02F FOG WCI 25  
K.C. DOWNTOWN CLOUDY 35 30 82 E8 30.03F HAZE WCI 29  
LEES SUMMIT CLOUDY 32 32 100 MISG 30.03F FOG  
OLATHE - IXD CLOUDY 33 32 96 SE10 30.01F FOG WCI 25  
OLATHE - OJC CLOUDY 32 32 100 SE8 30.01F FOG WCI 25  
LAWRENCE CLOUDY 34 32 92 SE9 30.02F FOG WCI 27  
 

 
 
MOZ001>008-011>017-020>025-030>033-038>040-044>046-053-054-181200-   
..NORTHERN AND CENTRAL MISSOURI
 
 
 
CITY SKY/WX TMP DP RH WIND PRES REMARKS
 
ST. JOSEPH CLOUDY 31 29 92 E10 30.04F FOG WCI 22  
MOSBY CLOUDY 32 32 100 E6 30.05F FOG WCI 26  
WARRENSBURG CLOUDY 32 32 100 E3 30.06F FOG  
WHITEMAN AFB CLOUDY 32 32 100 E3 30.04F FOG  
CLINTON CLOUDY 34 34 100 SE3 30.06F FOG  
SEDALIA CLOUDY 31 31 100 SE5 30.08F FOG WCI 26  
WARSAW NOT AVBL  
CHILLICOTHE N/A 32 28 85 NE5 30.09F WCI 27  
KIRKSVILLE CLOUDY 29 26 89 NE3 30.10S  
 

 
 
MOZ041-047>049-056>058-063>065-088>090-097-181200-   
..EASTERN AND SOUTHERN MISSOURI
 
 
 
CITY SKY/WX TMP DP RH WIND PRES REMARKS
 
ST. LOUIS INTL CLOUDY 34 30 85 S5 30.13F WCI 30  
SPIRIT OF STL CLOUDY 35 32 88 CALM 30.12F  
COLUMBIA CLOUDY 33 32 96 SE6 30.08F FOG WCI 28  
JEFFERSON CITY CLOUDY 33 31 92 E6 30.10F FOG WCI 28  
ROLLA CLOUDY 34 32 92 E3 30.08F FOG  
OSAGE BEACH CLOUDY 35 35 100 E3 30.09F FOG  
SPRINGFIELD CLOUDY 38 35 89 S10 30.03F FOG WCI 31  
BRANSON CLOUDY 39 39 100 SE7 30.06F FOG WCI 34  
JOPLIN CLOUDY 39 37 92 SE8 30.03F FOG WCI 33  
WEST PLAINS CLOUDY 41 37 86 SE3 30.08F  
 

 
 
IAZ060-094-KSZ022-034>040-054-083-096-NEZ052-066-093-181200-    
..KANSAS...SOUTHEAST NEBRASKA AND IOWA
 
 
 
CITY SKY/WX TMP DP RH WIND PRES REMARKS
 
TOPEKA CLOUDY 34 31 88 SE13 30.00F WCI 25  
MANHATTAN CLOUDY 34 33 96 SE12 29.94F WCI 25  
EMPORIA FOG 34 34 100 SE15 29.95F VSB 1/2 WCI 24  
CHANUTE CLOUDY 37 37 100 SE8 30.01F FOG WCI 31  
WICHITA FOG 38 38 100 SE15G25 29.89F VSB 1/4 WCI 29  
OMAHA CLOUDY 28 22 78 E10 30.04F WCI 19  
LINCOLN CLOUDY 29 24 82 E9 29.98F HAZE WCI 20  
FALLS CITY CLOUDY 30 27 88 E10 30.01F FOG WCI 21  
LAMONI CLOUDY 27 23 85 NE6 30.08F WCI 20  
DES MOINES CLOUDY 20 12 71 E8 30.09F WCI 10  
 

 
 
 
 
CLICK HERE TO GO TO PREVIOUS BULLETINS.

The Nexlab MO Page
The Nexlab KS Page Main Text Page